Showing default

NOAA 16, 26536

Orbit data source: Space-Track

NOAA 16, 26536 is a payload satellite owned by NOAA (US) in SSO that was launched on Thu, 21 Sep 2000 UTC via a TITAN II SLV launch vehicle from the Air Force Western Test Range (AFWTR). Payload-class satellites include a variety of spacecraft equipped with specific instruments for various scientific and technological missions. These include communications satellites like Starlink; space stations such as the ISS; scientific satellites like the Hubble; Earth observation satellites from companies like Planet Labs, Umbra, and HawkEye 360; GPS; miniature CubeSats for education and research; and military/defense satellites.

Loading next visibility...
Identifier
26536, 2000-055A
Orbit
SSO
Country
Flag of USUS
Related business
Manufacturer
LM/EW
Mission
Non-operational Civil Weather
Bus & Motor
ATN, Unknown motor
Mass
2,231 kg wet, 1,403 kg dry
Launch date (UTC)
2000-09-21 (26 years ago)
Launch vehicle
TITAN II SLV
Launch site
Air Force Western Test Range (AFWTR)
Object type
Payload
Rocket body
Debris
Shape & HBR
Box + 1 Pan, 3.5 m
Radar Cross Section
11.218 m², Large (>1 m²)

Expand to show TLE details & history
Last TLE update: 6 hours ago

TLE from 6 hours ago
0 NOAA 16
1 26536U 00055A   26178.28488590  .00000070  00000-0  58242-4 0  9992
2 26536  98.4623 192.0328 0009154 272.7273  87.2853 14.13924265625159
Epoch: 2026-06-27T06:50Z
TLE epoch observation values (Epoch: 2026-06-27T06:50:14.141Z)
Latitude
-0.00005°
Longitude
174.07265°
Altitude
848.581 km
Speed
7.429 km/s
True Right ascension
12h 48m 07s
True Declination
0° 00' 00"
Sunlit
Object was in daylight at epoch
Visualization orbit readout
Latitude
Unknown
Longitude
Unknown
Altitude
Unknown
Speed
Unknown
Apparent Right ascension
Unknown
Apparent Declination
Unknown
Sunlit
N/A
Visualization observer readout
Local Sidereal Time
23:48:30
Azimuth
Unknown
Elevation
Unknown
Doppler factor
Unknown
Orbital elements
Apogee altitude
849.739 km
Perigee altitude
836.519 km
Semi-major axis
7,221.266 km
Eccentricity
0.00092
Inclination
98.4623°
RAAN
192.0328°
Arg. of periapsis
272.7273°
True anomaly
87.39009°
Mean anomaly
87.2853°
Eccentric anomaly
87.33769°
Mean motion
3.5369 °/min
Orbital period
101.78 mins
BSTAR
0.000058242
Loading maneuver chart data...
Computing Atmospheric mass density...
Loading historical data...
Loading historical data...
Loading historical data...
Loading historical data...
Loading historical data...
Loading historical data...
Loading historical data...

Documentation

Showing up to 5 results
|